KAITUO 1B
1 40912U 15049P   19225.41218510  .00000883  00000-0  44513-4 0  9996
2 40912  97.4499 232.0437 0014530 344.2183 110.9366 15.19680471215779
TIANWANG 1C (TW-1C)
1 40926U 15051B   19225.53427350  .00008320  00000-0  11830-3 0  9990
2 40926  97.1326 271.6561 0008472 154.2731 313.3867 15.56592968218843
TIANWANG 1B (TW-1B)
1 40927U 15051C   19225.55592630  .00008075  00000-0  12193-3 0  9997
2 40927  97.1359 270.9353 0008867 164.8583 334.9540 15.54957914218695
TIANWANG 1A (TW-1A)
1 40928U 15051D   19225.54839574  .00002176  00000-0  54682-4 0  9994
2 40928  97.1435 255.6138 0009762 225.2819 288.6259 15.41008940217773
LAPAN A2
1 40931U 15052B   19223.99143605  .00000624  00000-0 -23477-5 0  9995
2 40931   6.0010  29.4171 0013990 204.0166 156.0123 14.76610806209302
LQSAT
1 40958U 15057A   19225.19520240 -.00000019  00000-0  47281-5 0  9994
2 40958  97.8954 292.8829 0019464  65.4100 294.9134 14.73085733206977
CHUBUSAT 2
1 41338U 16012B   19224.85129031  .00000220  00000-0  10355-4 0  9998
2 41338  31.0026 154.2204 0013861 289.0760  70.8374 15.00165683191209
CHUBUSAT 3
1 41339U 16012C   19225.14699004  .00000235  00000-0  11495-4 0  9996
2 41339  31.0111 150.3617 0013738 299.1495  60.7767 15.00340431191244
OUFTI-1
1 41458U 16025C   19224.47572921  .00001870  00000-0  98358-4 0  9994
2 41458  98.1016 314.1073 0166580 172.4530 187.9263 15.05901681180816
E-STAR-2
1 41459U 16025D   19225.50218910  .00000912  00000-0  50463-4 0  9996
2 41459  98.1044 314.8214 0168514 170.3145 190.1384 15.05544240180948
AAUSAT 4
1 41460U 16025E   19225.47435208  .00001889  00000-0  97816-4 0  9992
2 41460  98.0955 316.1663 0157869 162.7203 197.9490 15.07457920181072
NUSAT 1
1 41557U 16033B   19225.53902270  .00000793  00000-0  32359-4 0  9997
2 41557  97.4177 312.7160 0015519  99.9363 260.3628 15.27299537178619
BEESAT 4
1 41619U 16040W   19225.42130794  .00000787  00000-0  36174-4 0  9998
2 41619  97.3638 286.5978 0011303 179.0110 181.1151 15.23218098162344
PRATHAM
1 41783U 16059A   19224.38260929  .00000018  00000-0  12791-4 0  9994
2 41783  98.0635 282.7456 0032915 209.9919 149.9398 14.63003260153545
ALSAT 1N
1 41789U 16059G   19225.41799763  .00000026  00000-0  14031-4 0  9996
2 41789  98.0667 285.8753 0028072 195.7214 164.3123 14.64254525153808
NAYIF 1
1 42017U 17008BX  19225.45007245  .00000852  00000-0  36340-4 0  9991
2 42017  97.3999 291.9621 0005575 348.9993  11.1122 15.25629255138427
MAX VALIER SAT
1 42778U 17036P   19225.41043954  .00000544  00000-0  26723-4 0  9991
2 42778  97.3504 281.8383 0013275  36.0708 324.1422 15.22081085118711
